Wind_Speed
19 18 17 17 16 15 13 11 9 8 6 4 2 3 4 5 7 7 9 11 12 13 12 12 12 11 11 12 12 12 11 10 9 9 9 8 7 6 5 5 4 3 2 1
21 20 20 20 19 17 15 13 11 10 9 7 5 4 4 5 6 6 7 9 10 11 12 11 11 11 11 11 11 11 10 10 9 9 9 8 7 7 5 4 4 4 2 1
23 23 23 21 20 19 18 16 14 13 11 10 7 6 6 5 6 6 7 8 8 10 11 11 10 10 10 10 10 10 9 9 9 9 8 8 7 7 6 5 5 4 3 2
26 27 24 23 22 21 20 19 18 15 13 11 9 8 9 7 6 7 7 7 7 8 10 10 10 10 9 9 9 9 9 9 8 8 8 7 7 7 6 6 5 4 4 4
28 28 26 25 24 23 22 21 20 18 16 14 13 10 10 10 8 8 8 8 7 8 9 9 10 10 9 9 9 9 9 8 8 8 8 8 7 6 7 7 6 5 4 4
30 29 29 28 27 25 24 23 22 21 19 18 16 14 12 11 10 9 9 9 8 8 9 9 9 9 8 9 8 8 8 8 8 8 8 7 7 7 6 6 6 6 6 5
29 29 29 29 29 28 26 23 21 20 20 20 19 17 15 13 12 11 11 10 10 9 9 10 9 9 8 8 8 8 8 8 7 7 7 7 7 7 7 6 6 6 7 7
28 28 30 30 30 29 28 25 23 20 19 18 21 20 17 15 14 14 14 13 12 11 10 11 10 9 9 8 8 8 7 7 7 7 7 7 7 7 7 7 7 7 7 7
26 27 29 29 29 29 29 27 24 23 22 20 19 20 18 18 16 15 15 15 13 12 11 11 11 10 10 9 9 9 8 8 8 8 7 7 8 8 8 8 8 8 8 8
28 28 28 28 28 29 30 28 27 25 23 22 21 20 19 19 17 16 16 16 14 14 12 11 11 11 10 10 10 10 10 10 9 8 8 8 8 8 9 9 9 10 10 10
29 28 28 28 29 28 30 30 29 26 25 23 20 19 19 19 17 16 16 16 16 15 15 14 13 13 12 12 12 12 12 11 11 10 9 9 9 9 9 9 10 11 11 12
29 29 28 29 29 29 30 29 28 27 26 26 23 21 22 20 18 17 18 17 16 16 16 16 16 15 15 15 14 14 13 13 13 12 11 10 10 11 11 10 11 12 13 13
29 30 29 27 28 30 31 31 29 28 27 26 24 23 24 23 21 20 19 19 18 18 18 18 18 18 17 17 16 15 14 13 13 13 13 12 12 12 13 13 13 14 14 14
30 30 30 26 25 28 30 30 30 29 26 26 26 25 26 25 23 22 22 22 21 20 20 21 21 21 19 19 18 17 16 15 15 15 14 14 14 14 15 15 16 17 17 17
31 31 31 31 30 29 30 30 31 31 29 27 26 27 27 27 25 25 25 24 24 23 23 23 23 23 22 21 21 19 18 18 17 17 17 16 17 17 17 18 18 19 19 19
31 32 31 31 31 31 31 31 31 31 31 30 29 29 27 27 27 26 26 26 26 26 25 25 25 25 24 23 23 22 22 21 21 20 19 20 20 20 20 20 20 21 20 20
31 31 31 30 31 31 32 33 32 32 32 31 31 31 29 29 28 27 27 28 28 28 28 27 27 27 25 25 25 25 24 24 24 23 22 22 23 23 23 22 22 22 22 23
31 30 30 29 31 32 33 33 32 33 33 33 33 32 31 30 30 29 29 30 31 31 31 30 29 27 27 27 27 27 26 26 26 25 26 25 25 25 24 24 24 25 25 26
32 31 31 30 30 31 34 33 32 32 33 34 35 34 33 32 32 33 33 33 33 34 34 33 32 30 29 30 29 29 29 29 28 28 27 27 27 27 27 27 27 27 27 28
32 32 32 32 30 30 33 33 32 32 34 35 35 35 34 33 33 35 34 33 34 34 34 34 34 33 33 33 33 33 33 32 31 30 29 29 30 30 30 30 30 29 30 29
33 33 33 32 32 32 34 33 32 33 35 35 35 35 35 35 35 35 35 34 34 34 34 34 35 35 35 35 35 35 35 35 34 34 33 32 33 32 32 32 32 31 30 29
33 33 34 33 33 34 35 34 34 34 35 35 35 36 36 37 37 37 36 36 36 35 36 37 37 37 37 37 37 37 37 37 36 36 36 36 35 34 35 34 34 34 32 31
33 34 34 35 35 36 34 34 34 34 35 35 35 36 37 37 38 38 38 38 38 38 38 39 40 40 39 39 39 39 38 38 37 37 38 38 38 37 36 36 35 35 34 32
33 34 35 35 35 35 35 35 36 35 36 36 36 37 38 38 38 39 39 39 38 39 40 41 41 41 41 41 41 40 40 39 39 40 40 41 40 40 39 37 37 35 35 33
33 33 33 34 34 34 35 35 36 37 37 37 37 37 38 38 38 38 38 39 39 40 41 42 42 42 42 41 41 41 41 41 42 42 42 42 41 40 40 39 38 37 36 35
31 32 33 33 34 35 35 35 35 36 36 37 37 36 37 38 38 38 39 39 39 39 39 41 41 42 41 41 41 42 42 42 41 42 42 41 40 40 39 39 39 38 38 37
Wind_Direction
226 225 225 226 222 219 223 225 233 246 256 270 302 343 353 2 12 17 18 17 16 18 20 24 28 31 31 31 32 34 36 38 41 41 42 43 46 47 50 54 58 74 98 123
227 227 225 227 228 227 230 232 238 250 257 263 272 297 317 336 351 358 1 1 5 7 11 15 19 23 25 26 27 29 30 30 31 33 35 34 33 34 36 38 41 50 64 81
228 230 229 229 231 229 232 234 239 248 258 262 271 289 295 306 326 338 342 343 350 355 359 3 7 10 15 19 21 24 24 23 24 24 25 28 30 33 31 26 25 25 25 10
227 231 231 230 230 230 236 240 240 247 252 260 265 268 281 288 300 315 324 327 331 337 345 351 355 358 2 7 14 17 18 18 17 18 18 19 21 23 20 16 12 9 6 357
230 231 231 230 231 232 233 239 242 246 249 252 261 260 268 278 282 297 311 315 317 321 328 339 346 351 354 358 4 10 12 13 13 14 17 17 16 16 15 14 10 3 352 346
231 232 230 231 233 234 235 239 243 246 248 252 255 258 261 270 273 278 289 299 303 308 313 323 334 340 344 346 351 358 2 5 8 7 8 8 10 11 10 10 10 2 354 347
233 234 233 233 235 237 237 238 242 245 247 250 256 256 257 263 266 267 275 285 287 296 303 309 319 325 327 334 339 345 348 351 357 358 357 356 356 356 358 1 356 350 348 344
234 235 234 234 235 238 238 236 235 240 248 255 261 256 260 264 264 264 268 277 282 288 295 299 304 308 311 316 324 329 333 337 341 341 342 342 342 342 343 346 347 343 342 341
231 232 235 234 234 235 237 236 235 241 245 247 252 258 261 263 264 262 265 271 276 279 286 293 293 295 300 304 311 316 319 320 321 324 327 326 327 328 329 331 333 333 335 335
232 233 235 235 235 235 236 237 238 236 241 246 252 256 260 264 265 263 262 265 271 270 271 280 283 289 295 296 297 302 305 307 306 308 314 315 315 317 318 319 325 326 324 321
231 232 235 235 234 235 237 238 239 239 238 243 249 253 259 260 260 258 258 260 264 265 266 273 277 283 289 294 291 296 297 297 297 297 298 302 304 308 309 310 315 319 319 316
231 231 233 236 237 235 236 238 239 239 242 242 244 250 257 257 255 254 256 258 261 262 264 270 273 278 284 289 289 293 292 293 296 293 291 294 296 299 302 305 308 312 316 316
232 231 232 236 240 238 237 238 238 239 242 244 245 251 256 256 254 254 255 256 259 262 264 268 270 274 278 283 286 288 289 291 292 290 287 288 291 293 295 299 303 306 310 311
234 234 232 229 234 240 240 240 240 239 242 246 246 246 252 255 253 250 251 254 256 259 262 265 268 270 273 276 280 283 284 286 288 286 288 287 287 289 290 294 298 301 304 302
237 238 237 234 235 239 241 241 241 241 240 243 247 248 252 253 252 250 250 252 254 255 257 261 266 269 270 273 275 276 277 279 282 283 283 283 284 285 287 290 293 297 299 302
239 239 239 239 239 240 241 240 240 242 243 245 248 250 251 252 252 251 251 252 254 255 256 257 262 266 267 269 271 272 272 274 276 277 279 280 281 283 285 287 288 291 293 295
239 240 239 241 241 243 243 242 242 243 244 246 248 249 250 251 252 252 251 252 253 254 256 258 260 263 266 267 267 267 272 273 273 273 275 276 278 282 284 286 288 288 289 291
239 240 240 240 242 242 245 245 244 245 246 246 247 248 248 250 252 252 251 252 252 253 255 256 257 259 261 263 265 267 268 270 271 273 274 274 276 279 282 284 286 285 285 287
239 240 240 241 243 245 246 247 247 248 247 247 248 249 249 250 252 253 254 254 253 253 256 256 256 257 259 261 263 265 268 269 271 274 275 275 275 276 277 280 282 283 282 284
240 240 241 240 241 246 248 248 248 250 251 248 249 250 250 251 251 253 255 254 254 254 255 256 257 256 258 260 262 264 267 270 271 272 273 274 276 276 278 280 279 279 281 280
242 242 241 242 243 246 248 249 249 250 251 251 250 250 251 251 252 254 255 255 254 254 254 255 256 257 259 261 262 264 266 268 271 271 272 273 275 277 278 279 280 278 278 281
243 245 245 245 246 249 250 250 249 251 253 253 252 252 253 253 254 255 255 254 254 255 254 255 256 257 259 261 262 263 264 266 268 270 271 273 274 275 276 277 278 279 282 280
244 246 248 248 248 249 251 251 252 252 252 253 254 254 255 255 254 255 257 256 255 255 256 256 257 258 258 260 261 262 263 264 266 268 270 273 275 276 278 278 278 279 280 281
245 246 249 251 251 252 253 253 254 254 254 254 255 255 255 256 256 257 258 258 258 258 258 257 258 260 261 260 260 262 263 264 266 268 270 271 273 276 277 276 278 281 280 279
247 248 250 251 252 254 254 255 256 255 255 255 256 257 257 258 258 258 258 260 260 261 260 259 259 260 261 261 261 262 264 265 267 269 270 271 273 275 276 278 279 281 282 280
248 248 249 252 253 254 254 255 256 257 257 257 257 257 258 258 257 258 259 259 260 261 262 262 262 261 261 261 261 261 263 265 267 269 269 270 273 274 276 278 278 279 281 279
Height
5918 5922 5924 5927 5928 5931 5932 5934 5935 5935 5934 5934 5934 5933 5932 5930 5929 5927 5926 5924 5923 5921 5918 5916 5914 5912 5910 5908 5906 5904 5902 5901 5899 5898 5896 5895 5894 5893 5892 5892 5891 5890 5890 5890
5916 5918 5921 5922 5924 5927 5929 5931 5933 5933 5932 5932 5933 5933 5932 5930 5929 5928 5926 5925 5924 5922 5919 5917 5915 5913 5911 5909 5907 5905 5903 5902 5900 5899 5897 5896 5895 5894 5893 5892 5891 5891 5890 5890
5912 5915 5916 5918 5921 5924 5926 5928 5930 5931 5930 5931 5932 5932 5931 5930 5929 5928 5926 5925 5924 5922 5920 5918 5916 5914 5912 5910 5908 5906 5904 5903 5901 5900 5898 5897 5896 5895 5894 5893 5892 5891 5890 5890
5907 5909 5912 5915 5917 5920 5923 5924 5926 5927 5928 5930 5930 5932 5931 5929 5928 5927 5926 5925 5923 5922 5921 5919 5917 5915 5913 5911 5909 5907 5905 5904 5902 5900 5899 5898 5897 5895 5894 5893 5892 5891 5890 5890
5902 5904 5907 5911 5913 5916 5919 5920 5922 5924 5925 5927 5928 5929 5931 5928 5927 5926 5925 5924 5923 5921 5920 5919 5917 5915 5913 5911 5909 5907 5906 5904 5903 5901 5900 5898 5897 5896 5894 5893 5892 5891 5890 5890
5897 5899 5903 5906 5908 5911 5913 5916 5918 5920 5923 5924 5924 5926 5927 5926 5925 5924 5924 5923 5922 5921 5919 5918 5917 5915 5913 5911 5909 5908 5906 5904 5903 5902 5900 5899 5897 5896 5894 5893 5892 5891 5890 5889
5892 5894 5897 5900 5903 5906 5909 5913 5916 5918 5919 5921 5920 5921 5923 5922 5921 5921 5921 5921 5920 5919 5918 5917 5916 5914 5913 5911 5909 5907 5906 5904 5903 5901 5900 5899 5897 5896 5894 5893 5892 5891 5889 5888
5887 5890 5892 5895 5898 5901 5904 5909 5913 5916 5917 5918 5916 5916 5918 5918 5917 5918 5918 5918 5917 5917 5916 5915 5914 5913 5912 5910 5909 5907 5905 5904 5902 5901 5899 5898 5897 5895 5894 5893 5891 5890 5889 5887
5882 5885 5886 5889 5892 5896 5898 5901 5907 5910 5911 5913 5913 5912 5912 5912 5913 5914 5914 5914 5914 5914 5913 5913 5912 5911 5910 5909 5908 5906 5905 5903 5901 5900 5898 5897 5896 5895 5893 5892 5891 5889 5888 5887
5876 5879 5880 5883 5886 5889 5892 5895 5899 5903 5905 5907 5908 5908 5909 5908 5909 5909 5910 5910 5910 5910 5910 5910 5909 5909 5908 5907 5905 5904 5903 5902 5900 5899 5897 5896 5895 5893 5892 5891 5889 5888 5887 5885
5870 5873 5876 5878 5880 5884 5886 5889 5892 5896 5899 5902 5904 5907 5903 5903 5904 5905 5905 5906 5906 5906 5907 5907 5906 5906 5905 5904 5903 5902 5900 5899 5898 5897 5896 5894 5893 5891 5890 5889 5888 5886 5885 5883
5863 5867 5870 5872 5874 5877 5879 5882 5886 5890 5891 5893 5897 5902 5897 5898 5899 5900 5901 5901 5902 5902 5902 5903 5903 5902 5902 5901 5900 5898 5897 5896 5895 5894 5893 5892 5891 5889 5888 5887 5885 5884 5882 5881
5856 5860 5864 5867 5870 5871 5873 5875 5879 5882 5885 5887 5891 5895 5891 5892 5893 5895 5895 5896 5897 5898 5898 5898 5898 5898 5898 5897 5896 5895 5894 5893 5892 5891 5890 5889 5888 5886 5885 5884 5882 5881 5879 5878
5849 5853 5858 5863 5864 5864 5866 5869 5872 5875 5879 5881 5883 5886 5885 5885 5887 5889 5890 5891 5892 5892 5893 5893 5893 5893 5893 5892 5892 5891 5890 5889 5888 5887 5886 5885 5884 5883 5882 5881 5879 5878 5876 5874
5842 5846 5849 5852 5855 5858 5860 5862 5865 5868 5871 5874 5876 5876 5878 5879 5880 5882 5883 5884 5886 5886 5887 5887 5887 5887 5887 5887 5887 5887 5886 5885 5884 5884 5883 5881 5880 5879 5878 5876 5875 5874 5872 5870
5834 5838 5841 5844 5847 5849 5852 5854 5857 5860 5862 5865 5867 5868 5870 5871 5873 5874 5876 5877 5879 5880 5880 5881 5881 5881 5881 5881 5881 5881 5881 5880 5879 5878 5877 5876 5875 5874 5873 5872 5870 5869 5867 5865
5827 5830 5834 5837 5839 5842 5844 5846 5849 5852 5854 5857 5858 5860 5862 5863 5865 5867 5868 5870 5871 5872 5873 5873 5874 5874 5874 5875 5875 5875 5874 5874 5873 5872 5871 5870 5870 5869 5868 5866 5865 5863 5861 5859
5820 5823 5826 5829 5832 5834 5837 5838 5841 5843 5845 5847 5849 5851 5853 5855 5857 5859 5860 5861 5863 5864 5865 5865 5866 5866 5867 5868 5867 5867 5867 5867 5866 5865 5864 5864 5864 5863 5861 5860 5859 5857 5855 5854
5812 5815 5818 5821 5823 5825 5827 5830 5832 5834 5836 5838 5840 5842 5844 5846 5848 5849 5851 5852 5854 5855 5856 5857 5858 5859 5859 5860 5860 5860 5860 5859 5859 5858 5857 5857 5856 5855 5854 5853 5851 5849 5848 5846
5803 5806 5810 5812 5815 5817 5818 5820 5823 5826 5826 5828 5830 5832 5835 5837 5839 5840 5841 5843 5844 5846 5847 5848 5849 5850 5850 5851 5851 5851 5851 5851 5851 5850 5850 5849 5848 5847 5846 5845 5843 5842 5840 5838
5795 5797 5800 5802 5804 5806 5807 5810 5813 5817 5817 5818 5820 5822 5824 5826 5828 5830 5831 5833 5834 5836 5837 5838 5839 5840 5841 5841 5841 5841 5842 5842 5842 5841 5840 5840 5839 5838 5837 5836 5835 5832 5831 5829
5786 5788 5790 5793 5795 5798 5798 5800 5803 5804 5805 5807 5809 5812 5813 5815 5817 5819 5821 5822 5824 5825 5826 5827 5829 5830 5830 5831 5831 5832 5832 5832 5832 5832 5831 5831 5830 5829 5828 5827 5825 5824 5822 5821
5776 5779 5781 5784 5786 5787 5788 5790 5792 5793 5795 5796 5798 5800 5802 5804 5806 5808 5809 5811 5813 5814 5815 5816 5817 5818 5819 5819 5820 5821 5821 5822 5822 5822 5821 5821 5820 5819 5818 5817 5815 5814 5814 5812
5767 5769 5771 5773 5775 5777 5778 5780 5781 5782 5784 5786 5787 5789 5790 5792 5794 5796 5798 5799 5801 5802 5803 5804 5805 5807 5808 5808 5809 5810 5811 5811 5811 5811 5811 5810 5810 5809 5808 5806 5805 5804 5802 5801
5758 5760 5761 5763 5765 5767 5768 5769 5770 5771 5773 5774 5776 5777 5779 5780 5782 5784 5786 5787 5789 5790 5791 5792 5793 5795 5796 5797 5797 5798 5799 5800 5800 5800 5799 5799 5798 5798 5797 5796 5795 5793 5792 5790
5748 5750 5752 5753 5755 5757 5758 5759 5760 5761 5762 5763 5765 5766 5768 5769 5771 5772 5774 5775 5777 5778 5779 5780 5781 5782 5783 5784 5785 5786 5787 5787 5788 5788 5788 5787 5787 5786 5786 5784 5784 5782 5782 5780